This is the latest recevied weather packets stored in our database for station/object AE6BH. If no packets are shown the sender has not sent any weather packets the latest 10 day(s).
| Time | Temp. | Humidity | Pressure | Rain* | Wind** | Luminosity | Snow |
|---|---|---|---|---|---|---|---|
| 1778114435 | 19.44° C | 56% | 1016.5 hPa | 0 mm | - | 60 W/m² | - |
| 1778114131 | 20° C | 56% | 1016.6 hPa | 0 mm | - | 52 W/m² | - |
| 1778113826 | 19.44° C | 56% | 1016.5 hPa | 0 mm | - | 72 W/m² | - |
| 1778113523 | 20° C | 56% | 1016.6 hPa | 0 mm | - | 73 W/m² | - |
| 1778113219 | 20° C | 55% | 1016.3 hPa | 0 mm | - | 49 W/m² | - |
| 1778112915 | 20° C | 56% | 1016.3 hPa | 0 mm | - | 48 W/m² | - |
| 1778112613 | 20° C | 54% | 1016.3 hPa | 0 mm | - | 61 W/m² | - |
| 1778112309 | 20.56° C | 54% | 1016.3 hPa | 0 mm | - | 79 W/m² | - |
| 1778112005 | 20° C | 53% | 1016.3 hPa | 0 mm | - | 64 W/m² | - |
| 1778111702 | 20° C | 53% | 1016.4 hPa | 0 mm | - | 52 W/m² | - |
| 1778111398 | 20.56° C | 53% | 1016 hPa | 0 mm | - | 59 W/m² | - |
| 1778111095 | 20° C | 53% | 1016.4 hPa | 0 mm | - | 63 W/m² | - |
| 1778110793 | 20.56° C | 53% | 1016.1 hPa | 0 mm | - | 70 W/m² | - |
| 1778110489 | 20° C | 54% | 1016.1 hPa | 0 mm | - | 66 W/m² | - |
| 1778110186 | 20° C | 53% | 1016.1 hPa | 0 mm | - | 193 W/m² | - |
| 1778109882 | 20° C | 54% | 1016.4 hPa | 0 mm | - | 105 W/m² | - |
| 1778109578 | 20.56° C | 53% | 1016.1 hPa | 0 mm | - | 77 W/m² | - |
| 1778109276 | 20.56° C | 52% | 1016.4 hPa | 0 mm | - | 130 W/m² | - |
| 1778108973 | 20.56° C | 53% | 1016.3 hPa | 0 mm | - | 77 W/m² | - |
| 1778108669 | 20.56° C | 53% | 1016.3 hPa | 0 mm | - | 93 W/m² | - |
| 1778108366 | 20° C | 54% | 1016.5 hPa | 0 mm | - | 68 W/m² | - |
| 1778108063 | 20.56° C | 53% | 1016.3 hPa | 0 mm | - | 97 W/m² | - |
| 1778107760 | 20.56° C | 52% | 1016.6 hPa | 0 mm | - | 64 W/m² | - |
| 1778107457 | 20° C | 54% | 1016.4 hPa | 0 mm | - | 154 W/m² | - |
| 1778107153 | 20.56° C | 53% | 1016.4 hPa | 0 mm | - | 185 W/m² | - |
* Rain latest hour (hover to see other rain measurements)
** Current wind speed in m/s (hover to see current wind gust speed)